Waarnemingen

Advertentie
Mijn weer
Capo Carbonara, Italië (16564): temperatuur & dauwpunt: 08.08.2018 15:00:00 - 14.08.2018 15:00:00 (CEST)Capo Carbonara, Italië (16564): windsnelheid: 08.08.2018 15:00:00 - 14.08.2018 15:00:00 (CEST)Capo Carbonara, Italië (16564): windrichting: 08.08.2018 15:00:00 - 14.08.2018 15:00:00 (CEST)Capo Carbonara, Italië (16564): luchtdruk: 08.08.2018 15:00:00 - 14.08.2018 15:00:00 (CEST)Capo Carbonara, Italië (16564): zicht: 08.08.2018 15:00:00 - 14.08.2018 15:00:00 (CEST)
Datum & Tijd tt [°C] td [°C] ff [km/u] ff [kn] dd ppp [hPa] vv [km]
14.08.2018 15:00:00 31,0 22,0 42 23 WZW - 10
14.08.2018 14:00:00 30,6 20,2 46 25 WZW 1010,9 20
14.08.2018 13:00:00 31,0 20,0 37 20 WZW - 10
14.08.2018 12:00:00 31,0 22,0 5 3 Z - 10
14.08.2018 11:00:00 28,4 22,6 13 7 O 1012,3 18
14.08.2018 10:00:00 26,0 18,0 31 17 W - 10
14.08.2018 09:00:00 24,0 19,0 31 17 W - 10
14.08.2018 08:00:00 24,8 17,3 28 15 WZW 1011,4 18
14.08.2018 07:00:00 25,0 19,0 29 16 W - 10
14.08.2018 06:00:00 25,0 20,0 22 12 WZW - 10
14.08.2018 05:00:00 25,6 20,8 18 10 WZW 1011,5 15
14.08.2018 04:00:00 26,0 21,0 18 10 WZW - 10
14.08.2018 03:00:00 26,0 21,0 11 6 W - 10
14.08.2018 02:00:00 26,0 21,2 22 12 WZW 1012,2 15
14.08.2018 01:00:00 26,0 21,0 22 12 WZW - 10
14.08.2018 00:00:00 27,0 22,0 18 10 ZW - 10
13.08.2018 23:00:00 26,6 22,0 15 8 ZW 1011,6 15
13.08.2018 22:00:00 27,0 22,0 16 9 ZZW - 10
13.08.2018 21:00:00 27,0 23,0 15 8 ZW - 10
13.08.2018 20:00:00 28,4 24,2 13 7 ZZW 1011,9 15
13.08.2018 19:00:00 29,0 25,0 13 7 ZZO - 10
13.08.2018 18:00:00 32,0 26,0 8 4 ZZO - 10
13.08.2018 17:00:00 31,0 24,9 15 8 ZZO 1012,5 15
13.08.2018 16:00:00 - - - - - - -
13.08.2018 15:00:00 32,0 26,0 18 10 ZZO - 10
13.08.2018 14:00:00 33,0 25,5 13 7 OZO 1013,4 15
13.08.2018 13:00:00 32,0 26,0 15 8 OZO - 10
13.08.2018 12:00:00 31,0 26,0 13 7 O - 10
13.08.2018 11:00:00 29,0 24,3 9 5 ONO 1014,4 20
13.08.2018 10:00:00 23,0 19,0 9 5 ONO - 10
13.08.2018 09:00:00 26,0 22,0 5 3 O - 10
13.08.2018 08:00:00 25,6 21,3 4 2 NNO 1014,1 18
13.08.2018 07:00:00 25,0 21,0 11 6 NO - 10
13.08.2018 06:00:00 25,0 21,0 4 2 NO - 10
13.08.2018 05:00:00 25,8 21,7 2 1 O 1014,1 18
13.08.2018 04:00:00 26,0 22,0 9 5 Z - 10
13.08.2018 03:00:00 26,0 20,0 11 6 Z - 10
13.08.2018 02:00:00 26,4 22,0 15 8 Z 1014,7 18
13.08.2018 01:00:00 26,0 22,0 9 5 Z - 10
13.08.2018 00:00:00 27,0 23,0 4 2 ZZW - 10
12.08.2018 23:00:00 26,8 23,1 9 5 ZZW 1015,5 18
12.08.2018 22:00:00 27,0 23,0 15 8 ZW - 10
12.08.2018 21:00:00 27,0 23,0 16 9 ZZW - 10
12.08.2018 20:00:00 28,6 24,4 15 8 ZZW 1015,0 10
12.08.2018 19:00:00 31,0 26,0 15 8 ZZW - 10
12.08.2018 18:00:00 32,0 23,0 13 7 ZZW - 10
12.08.2018 17:00:00 32,4 24,9 16 9 WNW 1015,8 10
12.08.2018 16:00:00 33,0 25,0 15 8 Z - 10
12.08.2018 15:00:00 32,0 26,0 13 7 Z - 10
12.08.2018 14:00:00 31,6 26,6 11 6 O 1016,9 18
12.08.2018 13:00:00 30,0 26,0 15 8 ONO - 10
12.08.2018 12:00:00 30,0 25,0 13 7 ONO - 10
12.08.2018 11:00:00 28,4 24,0 18 10 ONO 1017,4 18
12.08.2018 10:00:00 27,0 21,0 8 4 O - 10
12.08.2018 09:00:00 26,0 21,0 13 7 WZW - 10
12.08.2018 08:00:00 26,2 21,9 15 8 N 1017,1 18
12.08.2018 07:00:00 25,0 21,0 18 10 NNO - 10
12.08.2018 06:00:00 26,0 22,0 11 6 NO - 10
12.08.2018 05:00:00 25,8 21,5 9 5 NO 1016,9 16
12.08.2018 04:00:00 26,0 21,0 5 3 ONO - 10
12.08.2018 03:00:00 28,0 16,0 5 3 NO - 10
12.08.2018 02:00:00 27,6 16,9 5 3 NO 1017,4 16
12.08.2018 01:00:00 28,0 18,0 5 3 NNO - 10
12.08.2018 00:00:00 27,0 22,0 8 4 W - 10
11.08.2018 23:00:00 26,8 22,2 13 7 WZW 1017,6 16
11.08.2018 22:00:00 27,0 23,0 13 7 WZW - 10
11.08.2018 21:00:00 28,0 24,0 16 9 ZW - 10
11.08.2018 20:00:00 28,2 23,8 16 9 ZZW 1017,4 10
11.08.2018 19:00:00 30,0 26,0 18 10 ZZW - 10
11.08.2018 18:00:00 30,0 26,0 18 10 ZZW - 10
11.08.2018 17:00:00 30,2 26,2 18 10 ZZW 1018,4 10
11.08.2018 16:00:00 31,0 26,0 21 11 ZW - 10
11.08.2018 15:00:00 32,0 25,0 16 9 Z - 10
11.08.2018 14:00:00 32,2 24,5 16 9 Z 1019,0 10
11.08.2018 13:00:00 30,0 24,0 9 5 ZZW - 10
11.08.2018 12:00:00 30,0 25,0 4 2 Z - 10
11.08.2018 11:00:00 29,0 24,3 8 4 ONO 1019,7 18
11.08.2018 10:00:00 29,0 24,0 9 5 ONO - 10
11.08.2018 09:00:00 29,0 24,0 2 1 WNW - 10
11.08.2018 08:00:00 29,0 19,9 0 0 N 1018,9 18
11.08.2018 07:00:00 28,0 17,0 9 5 WNW - 10
11.08.2018 06:00:00 28,0 17,0 11 6 WNW - 10
11.08.2018 05:00:00 26,2 21,2 16 9 W 1018,9 18
11.08.2018 04:00:00 27,0 19,0 9 5 W - 10
11.08.2018 03:00:00 26,0 21,0 16 9 WZW - 10
11.08.2018 02:00:00 26,2 21,6 18 10 WZW 1019,7 18
11.08.2018 01:00:00 26,0 22,0 16 9 ZW - 10
11.08.2018 00:00:00 27,0 22,0 13 7 ZW - 10
10.08.2018 23:00:00 26,4 22,0 11 6 ZW 1019,8 15
10.08.2018 22:00:00 27,0 23,0 5 3 ZZW - 10
10.08.2018 21:00:00 27,0 23,0 9 5 ZZW - 10
10.08.2018 20:00:00 28,6 24,1 5 3 Z 1019,4 10
10.08.2018 19:00:00 31,0 25,0 9 5 Z - 10
10.08.2018 18:00:00 31,0 25,0 9 5 Z - 10
10.08.2018 17:00:00 32,0 25,5 13 7 Z 1019,3 10
10.08.2018 16:00:00 32,0 25,0 13 7 Z - 10
10.08.2018 15:00:00 32,0 25,0 15 8 Z - 10
10.08.2018 14:00:00 31,2 24,8 16 9 Z 1019,5 10
10.08.2018 13:00:00 - - - - - - -
10.08.2018 12:00:00 - - - - - - -
10.08.2018 11:00:00 - - - - - - -
10.08.2018 10:00:00 28,0 23,0 9 5 O - 10
10.08.2018 09:00:00 26,0 21,0 8 4 ONO - 10
10.08.2018 08:00:00 25,0 20,3 8 4 ONO 1018,6 12
10.08.2018 07:00:00 25,0 20,0 9 5 NO - 10
10.08.2018 06:00:00 25,0 20,0 5 3 ONO - 10
10.08.2018 05:00:00 25,0 20,3 5 3 N 1017,6 20
10.08.2018 04:00:00 25,0 20,0 4 2 Z - 10
10.08.2018 03:00:00 25,0 20,0 4 2 ZZO - 10
10.08.2018 02:00:00 25,0 20,3 8 4 O 1017,6 20
10.08.2018 01:00:00 25,0 20,0 0 0 N - 10
10.08.2018 00:00:00 25,0 20,0 11 6 NNO - 10
09.08.2018 23:00:00 25,0 20,7 15 8 NNO 1016,7 20
09.08.2018 22:00:00 26,0 22,0 5 3 NO - 10
09.08.2018 21:00:00 27,0 23,0 8 4 O - 10
09.08.2018 20:00:00 29,0 24,1 9 5 O 1015,6 18
09.08.2018 19:00:00 30,0 26,0 13 7 O - 10
09.08.2018 18:00:00 31,0 25,0 15 8 O - 10
09.08.2018 17:00:00 30,2 24,1 16 9 O 1015,6 18
09.08.2018 16:00:00 32,0 23,0 21 11 O - 10
09.08.2018 15:00:00 31,0 24,0 21 11 ONO - 10
09.08.2018 14:00:00 30,6 23,3 16 9 O 1016,3 18
09.08.2018 13:00:00 29,0 22,0 16 9 ONO - 10
09.08.2018 12:00:00 29,0 23,0 18 10 ONO - 10
09.08.2018 11:00:00 28,0 20,3 15 8 ONO 1015,5 20
09.08.2018 10:00:00 27,0 21,0 11 6 O - 10
09.08.2018 09:00:00 26,0 20,0 9 5 ONO - 10
09.08.2018 08:00:00 25,0 20,3 9 5 NO 1015,6 20
09.08.2018 07:00:00 24,0 20,0 11 6 NNO - 10
09.08.2018 06:00:00 24,0 20,0 9 5 NO - 10
09.08.2018 05:00:00 24,2 19,7 8 4 ONO 1014,9 18
09.08.2018 04:00:00 24,0 20,0 8 4 ONO - 10
09.08.2018 03:00:00 - - - - - - -
09.08.2018 02:00:00 25,0 20,9 0 0 N 1015,0 18
09.08.2018 01:00:00 25,0 21,0 0 0 N - 10
09.08.2018 00:00:00 25,0 21,0 0 0 N - 10
08.08.2018 23:00:00 25,6 21,5 5 3 ZZO 1015,3 20
08.08.2018 22:00:00 26,0 21,0 8 4 OZO - 10
08.08.2018 21:00:00 26,0 22,0 9 5 O - 10
08.08.2018 20:00:00 27,2 23,0 13 7 O 1014,7 20
08.08.2018 19:00:00 29,0 24,0 15 8 O - 10
08.08.2018 18:00:00 28,0 23,0 13 7 ONO - 10
08.08.2018 17:00:00 28,8 23,3 13 7 ONO 1014,6 20
08.08.2018 16:00:00 29,0 24,0 16 9 ONO - 10
08.08.2018 15:00:00 29,0 23,0 16 9 O - 10

tt = temperatuur
td = dauwpunt
ff = windsnelheid
dd = windrichting
ppp = luchtdruk
vv = zicht

Weerstations in de omgeving